KB9LNR Weather Reports


Display with metric or nautical units.
time (UTC)temp
F
wind
direction
speed
MPH
gust
MPH
rain 1hr
in
rain 24hr
in
rain mn
in
humidity
%
barometer
mb
20260906011607 79 0 1.0 4.0 0.00 0.00 0.00 81 1014.6
20260906010109 79 58 0.0 4.0 0.00 0.00 0.00 80 1014.4
20260906004606 80 19 0.0 4.0 0.00 0.00 0.00 79 1014.3
20260906003110 81 49 1.0 5.0 0.00 0.00 0.00 78 1014.1
20260906001606 82 41 0.0 3.0 0.00 0.00 0.00 76 1014.0
20260906000109 83 69 0.0 2.0 0.00 0.00 0.00 76 1013.9
20260905234618 84 0 0.0 4.0 0.00 0.00 0.00 75 1014.0
20260905233106 84 32 1.0 4.0 0.00 0.00 0.00 75 1013.8
20260905231607 85 13 0.0 3.0 0.00 0.00 0.00 74 1013.4
20260905230110 86 0 1.0 3.0 0.00 0.00 0.00 74 1013.4
20260905224610 87 11 1.0 4.0 0.00 0.00 0.00 72 1013.5
20260905223107 88 0 0.0 4.0 0.00 0.00 0.00 72 1013.4
20260905221605 88 0 0.0 3.0 0.00 0.00 0.00 70 1013.4
20260905220108 88 0 0.0 3.0 0.00 0.00 0.00 68 1013.3
20260905214613 89 320 0.0 3.0 0.00 0.00 0.00 69 1013.3
20260905213117 89 12 1.0 4.0 0.00 0.00 0.00 68 1013.2
20260905211607 90 65 0.0 3.0 0.00 0.00 0.00 68 1013.2
20260905210109 90 321 1.0 4.0 0.00 0.00 0.00 67 1013.2
20260905204605 90 0 0.0 4.0 0.00 0.00 0.00 68 1013.3
20260905203108 89 0 1.0 4.0 0.00 0.00 0.00 68 1013.4
20260905201608 90 333 0.0 3.0 0.00 0.00 0.00 69 1013.4
20260905200106 90 329 0.0 3.0 0.00 0.00 0.00 69 1013.5
20260905194606 90 311 1.0 3.0 0.00 0.00 0.00 69 1013.6
20260905193106 91 0 0.0 3.0 0.00 0.00 0.00 69 1013.6
20260905191615 90 0 0.0 3.0 0.00 0.00 0.00 69 1013.8
20260905190105 90 337 1.0 3.0 0.00 0.00 0.00 69 1013.9
20260905184621 90 0 0.0 3.0 0.00 0.00 0.00 69 1014.0
20260905183106 90 305 1.0 4.0 0.00 0.00 0.00 68 1014.1
20260905181610 90 0 1.0 4.0 0.00 0.00 0.00 69 1014.2
20260905180111 90 328 0.0 3.0 0.00 0.00 0.00 69 1014.2
20260905174617 89 0 0.0 3.0 0.00 0.00 0.00 70 1014.3
20260905173113 89 325 1.0 3.0 0.00 0.00 0.00 71 1014.4
20260905171605 89 5 0.0 5.0 0.00 0.00 0.00 72 1014.4
20260905170106 89 94 0.0 4.0 0.00 0.00 0.00 72 1014.5
20260905164605 88 95 1.0 4.0 0.00 0.00 0.00 73 1014.6
20260905163108 87 71 1.0 4.0 0.00 0.00 0.00 75 1014.7
20260905161608 86 0 0.0 2.0 0.00 0.00 0.00 76 1014.7
20260905160113 86 355 0.0 2.0 0.00 0.00 0.00 75 1014.6
20260905154607 85 0 1.0 3.0 0.00 0.00 0.00 75 1014.6
20260905153118 85 0 1.0 3.0 0.00 0.00 0.00 75 1014.5
20260905151609 84 0 0.0 3.0 0.00 0.00 0.00 76 1014.4
20260905150108 84 10 0.0 3.0 0.00 0.00 0.00 75 1014.4
20260905144611 84 317 0.0 3.0 0.00 0.00 0.00 76 1014.4
20260905143112 83 0 0.0 2.0 0.00 0.00 0.00 78 1014.1
20260905141615 82 155 0.0 2.0 0.00 0.00 0.00 78 1014.1
20260905140109 81 155 0.0 2.0 0.00 0.00 0.00 79 1014.0
20260905134615 80 0 0.0 0.0 0.00 0.00 0.00 84 1014.0
20260905133105 79 0 0.0 0.0 0.00 0.00 0.00 86 1013.8
20260905131608 78 0 0.0 0.0 0.00 0.00 0.00 87 1014.1
20260905130117 77 0 0.0 0.0 0.00 0.00 0.00 88 1014.0
20260905124609 77 0 0.0 0.0 0.00 0.00 0.00 90 1013.6
20260905123109 77 0 0.0 0.0 0.00 0.00 0.00 90 1013.5
20260905121605 77 0 0.0 0.0 0.00 0.00 0.00 90 1013.4
20260905120112 76 0 0.0 0.0 0.00 0.00 0.00 89 1013.4
20260905114637 76 0 0.0 0.0 0.00 0.00 0.00 89 1013.2
20260905113108 77 0 0.0 0.0 0.00 0.00 0.00 89 1013.2
20260905111608 77 0 0.0 0.0 0.00 0.00 0.00 88 1013.0
20260905110108 77 0 0.0 0.0 0.00 0.00 0.00 87 1013.0
20260905104612 77 0 0.0 0.0 0.00 0.00 0.00 87 1013.0
20260905103123 77 0 0.0 0.0 0.00 0.00 0.00 87 1013.2
20260905101615 77 0 0.0 0.0 0.00 0.00 0.00 87 1013.0
20260905100123 77 0 0.0 0.0 0.00 0.00 0.00 86 1013.1
20260905094625 77 0 0.0 0.0 0.00 0.00 0.00 86 1013.3
20260905093105 78 0 0.0 0.0 0.00 0.00 0.00 85 1013.3
20260905091616 78 0 0.0 0.0 0.00 0.00 0.00 85 1013.2
20260905090109 78 0 0.0 0.0 0.00 0.00 0.00 85 1013.2
20260905084607 78 0 0.0 0.0 0.00 0.00 0.00 85 1013.2
20260905083103 78 0 0.0 2.0 0.00 0.00 0.00 86 1013.3
20260905081609 78 0 0.0 0.0 0.00 0.00 0.00 86 1013.3
20260905080104 78 0 0.0 0.0 0.00 0.00 0.00 86 1013.4
20260905074606 78 0 0.0 0.0 0.00 0.00 0.00 86 1013.4
20260905073110 78 0 0.0 0.0 0.00 0.00 0.00 85 1013.6
20260905071610 78 0 0.0 0.0 0.00 0.00 0.00 85 1013.6
20260905070107 78 0 0.0 0.0 0.00 0.00 0.00 85 1013.6
20260905064616 78 0 0.0 0.0 0.00 0.00 0.00 86 1013.6
20260905063117 78 0 0.0 0.0 0.00 0.00 0.00 86 1013.5
20260905061622 78 0 0.0 0.0 0.00 0.00 0.00 85 1013.7
20260905060106 79 0 0.0 0.0 0.00 0.00 0.00 85 1013.9
20260905054606 79 0 0.0 0.0 0.00 0.00 0.00 85 1013.9
20260905053105 79 0 0.0 0.0 0.00 0.00 0.00 85 1013.9
20260905051626 80 0 0.0 0.0 0.00 0.00 0.00 83 1013.7
20260905050113 80 0 0.0 0.0 0.00 0.00 0.00 82 1013.6
20260905044608 80 0 0.0 0.0 0.00 0.00 0.00 81 1013.8
20260905043105 81 0 0.0 0.0 0.00 0.00 0.00 82 1013.9
20260905041607 81 0 0.0 0.0 0.00 0.00 0.00 82 1013.9
20260905040122 81 0 0.0 0.0 0.00 0.00 0.00 83 1013.6
20260905034613 81 0 0.0 1.0 0.00 0.00 0.00 82 1013.7
20260905033120 81 0 0.0 0.0 0.00 0.00 0.00 82 1013.8
20260905031621 81 0 0.0 0.0 0.00 0.00 0.00 82 1013.8
20260905030110 80 0 0.0 0.0 0.00 0.00 0.00 83 1013.7
20260905024611 80 0 0.0 0.0 0.00 0.00 0.00 83 1013.4
20260905023137 81 0 0.0 1.0 0.00 0.00 0.00 82 1013.6
20260905021604 82 0 0.0 0.0 0.00 0.00 0.00 80 1013.5
20260905020106 82 0 0.0 0.0 0.00 0.00 0.00 79 1013.6
20260905014616 83 0 0.0 0.0 0.00 0.00 0.00 79 1013.5
20260905013106 83 0 0.0 0.0 0.00 0.00 0.00 79 1013.2